[[{"header":{"parameterUnit":"m.s-1","parameterCategory":1,"la1":30.2991,"la2":30.254,"lo1":-89.0895,"lo2":-89.0444,"dy":0.0017,"dx":0.0017,"nx":28,"ny":28,"refTime":"2023-08-24T21:00:00:Z","depth":0,"parameterNumber":2,"parameterNumberName":"U-component_of_WINDS"},"data":[0,0,0,0,0,0,0,0,0,0,0,0,0,0,0,0,0,0,0,0,0,0,0,0,0,0,0,0,0,0,0,0,0,0,0,0,0,0,0,0,0,0,0,0,0,0,0,0,0,0,0,0,0,0,0,0,0,0,3.9786,3.9787,0,3.9919,3.9921,3.9922,3.9896,3.9894,3.9892,3.9889,4.0028,4.0033,4.0039,0,0,0,0,0,0,0,0,0,0,0,0,0,3.9511,3.9516,3.9785,3.9787,3.9789,3.9919,3.9921,3.9922,3.9897,3.9894,3.9891,3.9888,4.0026,4.0033,4.004,0,0,0,0,0,0,0,0,0,0,0,0,0,3.9636,3.9518,3.9785,3.9792,3.9794,3.9918,3.9921,3.9923,3.9898,3.9894,3.989,3.9887,4.0023,4.0032,4.0041,4.0168,0,0,4.0068,4.0072,0,0,0,0,0,0,0,0,3.9629,3.9646,3.9789,3.9791,3.9794,3.9887,3.9874,4.0005,3.9898,3.9858,3.9889,3.9885,3.9984,3.9996,4.0029,4.0174,4.018,4.0069,4.0074,4.0078,4.008,0,0,0,0,0,0,0,3.962,3.964,3.9838,3.9791,3.9794,3.9789,3.9803,3.9899,3.994,3.9861,3.986,3.9876,3.9985,4.002,4.0032,4.0182,4.0068,4.0076,4.0082,4.0085,4.0441,4.0445,0,0,0,0,0,0,3.9609,3.9633,3.9834,3.9842,3.9701,3.9797,3.9812,3.9861,3.9939,3.9947,3.9879,3.9874,4.0007,4.0022,4.0037,4.0192,4.0078,4.0086,4.0091,4.0437,4.0442,4.0446,0,0,0,0,0,0,3.9603,3.9627,3.9829,3.9737,3.9763,3.9805,3.986,3.9866,3.9901,3.9952,3.9959,3.9908,4.0005,4.0024,4.0136,4.0196,4.009,4.0098,4.0432,4.0439,4.0444,4.0502,0,0,0,0,0,0,3.9596,3.9625,3.9673,3.9739,3.9768,3.9925,3.9864,3.9871,3.9917,3.9912,3.9981,3.9989,4.0003,4.0123,4.0145,4.0206,4.0105,4.0427,4.0435,4.0442,4.0495,4.051,4.0522,0,0,0,0,0,3.9586,3.9684,3.9676,3.97,3.9828,3.9928,3.9945,3.9959,3.9921,3.9971,4.0003,3.9987,4.0186,4.0134,4.0159,4.0224,4.0423,4.0433,4.0442,4.0489,4.0507,4.0522,0,0,0,0,0,0,3.9625,3.9693,3.9684,3.9807,3.9862,3.9924,3.9986,3.9977,4.0045,4.0037,4.0053,4.0069,4.0182,4.0215,4.0156,4.0353,4.0299,4.0314,4.0327,4.0344,4.0358,4.0347,4.0112,0,0,0,0,0,3.9648,3.9722,3.9778,3.9881,3.9909,3.9943,3.9987,3.9993,4.0051,4.0075,4.0116,4.0173,4.0249,4.0299,4.0371,4.05,4.0516,4.0557,4.0571,4.0582,4.0594,4.0666,4.0686,4.0477,4.0477,4.0477,0,0,3.9695,3.9742,3.9788,3.989,3.9933,4.0012,3.9963,4.0047,4.0106,4.0088,4.0196,4.0228,4.0294,4.0415,4.047,4.0445,4.0656,4.0594,4.0602,4.0608,4.0678,4.0698,4.0715,4.0483,4.0482,4.0481,0,0,3.9822,3.9865,3.9956,4.0001,4.0067,4.009,4.0112,4.0176,4.0196,4.0305,4.0294,4.0364,4.0494,4.0542,4.0583,4.0731,4.0718,4.0754,4.0824,4.0895,4.0911,4.0926,4.0979,4.0998,4.0766,4.0766,4.0767,0,3.9874,3.999,4.0003,4.009,4.0135,4.0123,4.0216,4.0259,4.0347,4.0379,4.0349,4.0513,4.0557,4.069,4.0726,4.0759,4.0786,4.0746,4.0908,4.0922,4.0936,4.0988,4.1008,4.077,4.077,4.077,4.0769,0,4.005,4.0132,4.0197,4.0282,4.0335,4.0424,4.0452,4.0504,4.0507,4.0533,4.0645,4.0696,4.078,4.0812,4.0815,4.0946,4.0929,4.0904,4.085,4.096,4.1009,4.1028,4.0776,4.0775,4.0773,4.0772,0,0,4.0204,4.0296,4.032,4.0359,4.0433,4.0497,4.0586,4.0668,4.0713,4.0774,4.085,4.0962,4.0939,4.0986,4.0995,4.1056,4.1172,4.1024,4.1026,4.105,4.1321,4.134,4.1362,4.1164,4.1168,4.1171,4.1316,0,4.0339,4.0495,4.0511,4.0652,4.0728,4.0719,4.0797,4.0851,4.0879,4.0948,4.0978,4.1057,4.1021,4.105,4.111,4.1145,4.1226,4.1135,4.1236,4.124,4.122,4.1387,4.1407,4.1541,4.1335,4.1338,4.134,0,4.0516,4.0583,4.0731,4.0796,4.0828,4.0898,4.0975,4.1041,4.1104,4.1119,4.1173,4.1174,4.1267,4.1211,4.1341,4.1278,4.1321,4.1345,4.135,4.136,4.1296,4.1402,4.1584,4.1604,4.137,4.1368,4.1366,0,4.0614,4.0741,4.0847,4.088,4.0958,4.1008,4.1043,4.1102,4.115,4.1218,4.125,4.1328,4.1371,4.1432,4.1454,4.1411,4.1584,4.1529,4.16,4.16,4.1637,4.1634,4.1828,4.1664,4.1664,4.1664,4.1663,0,4.0763,4.0854,4.0892,4.0957,4.106,4.1078,4.1179,4.1212,4.1265,4.1337,4.1334,4.1402,4.1428,4.1501,4.1519,4.1625,4.1644,4.166,4.1664,4.166,4.1658,4.1688,4.168,4.1669,4.1668,4.1667,4.1666,0,4.0889,4.0918,4.1033,4.1098,4.1117,4.119,4.1246,4.1309,4.1336,4.1428,4.145,4.1493,4.1578,4.1607,4.1711,4.1723,4.1847,4.1842,4.1825,4.1826,4.1896,4.1889,4.2116,4.2147,4.1962,4.1964,4.1966,0,4.0982,4.1052,4.1125,4.1173,4.121,4.1287,4.1337,4.1358,4.141,4.1488,4.1543,4.1627,4.1696,4.1834,4.1875,4.1955,4.1952,4.2027,4.1964,4.1959,4.1954,4.195,4.1958,4.2038,4.204,4.2041,4.2043,0,4.1144,4.1155,4.1227,4.1305,4.1364,4.1426,4.1486,4.1526,4.1556,4.1615,4.1703,4.1756,4.1863,4.1948,4.2029,4.2067,4.2061,4.2062,4.2083,4.208,4.2068,4.2076,4.1857,4.2057,4.2055,4.2054,4.2053,4.2053,4.1257,4.132,4.1381,4.1462,4.1509,4.1566,4.1629,4.1664,4.1737,4.1825,4.1833,4.1928,4.1991,4.21,4.2141,4.2217,4.2196,4.2226,4.2233,4.2241,4.2246,4.2056,4.2232,4.2231,4.2231,4.2231,4.223,0,4.142,4.1459,4.1533,4.1617,4.1681,4.1669,4.1736,4.179,4.1873,4.1932,4.2,4.2102,4.2184,4.2232,4.2315,4.2367,4.2366,4.2388,4.2384,4.2393,4.226,4.2233,4.2387,4.2387,4.2387,4.2387,4.2387,4.2387,4.1511,4.1617,4.1636,4.1766,4.1805,4.1897,4.1936,4.1989,4.2036,4.2149,4.2218,4.2248,4.2304,4.2391,4.2467,4.2479,4.251,4.2534,4.2545,4.2419,4.2402,4.2387,4.2363,4.2541,4.2541,4.2672,4.2673,4.2674]},{"header":{"parameterUnit":"m.s-1","parameterCategory":1,"la1":30.2991,"la2":30.254,"lo1":-89.0895,"lo2":-89.0444,"dy":0.0017,"dx":0.0017,"nx":28,"ny":28,"refTime":"2023-08-24T21:00:00:Z","depth":0,"parameterNumber":3,"parameterNumberName":"V-component_of_WINDS"},"data":[0,0,0,0,0,0,0,0,0,0,0,0,0,0,0,0,0,0,0,0,0,0,0,0,0,0,0,0,0,0,0,0,0,0,0,0,0,0,0,0,0,0,0,0,0,0,0,0,0,0,0,0,0,0,0,0,0,0,-2.4674,-2.4675,0,-2.4781,-2.4782,-2.4783,-2.4791,-2.479,-2.4789,-2.4788,-2.4898,-2.4902,-2.4906,0,0,0,0,0,0,0,0,0,0,0,0,0,-2.4477,-2.4481,-2.4674,-2.4675,-2.4677,-2.4781,-2.4782,-2.4784,-2.4791,-2.479,-2.4788,-2.4787,-2.4897,-2.4901,-2.4906,0,0,0,0,0,0,0,0,0,0,0,0,0,-2.4571,-2.4482,-2.4674,-2.4693,-2.4696,-2.478,-2.4782,-2.4784,-2.4792,-2.479,-2.4788,-2.4786,-2.4895,-2.4901,-2.4907,-2.498,0,0,-2.4925,-2.4928,0,0,0,0,0,0,0,0,-2.4566,-2.4578,-2.4689,-2.4692,-2.4695,-2.4771,-2.4753,-2.485,-2.4792,-2.4755,-2.4788,-2.4786,-2.4857,-2.4866,-2.489,-2.4985,-2.499,-2.4926,-2.493,-2.4932,-2.4934,0,0,0,0,0,0,0,-2.4559,-2.4574,-2.4716,-2.469,-2.4694,-2.4697,-2.4708,-2.4772,-2.4815,-2.4758,-2.4759,-2.4772,-2.4858,-2.4884,-2.4893,-2.4991,-2.4926,-2.4931,-2.4935,-2.4937,-2.5153,-2.5155,0,0,0,0,0,0,-2.4549,-2.4568,-2.4713,-2.4719,-2.4625,-2.4702,-2.4714,-2.4748,-2.4814,-2.4822,-2.4773,-2.4772,-2.4875,-2.4886,-2.4897,-2.4987,-2.4932,-2.4938,-2.4941,-2.515,-2.5153,-2.5155,0,0,0,0,0,0,-2.4545,-2.4562,-2.4709,-2.4644,-2.4663,-2.4707,-2.4745,-2.4751,-2.4777,-2.4825,-2.4833,-2.4791,-2.4874,-2.4888,-2.4959,-2.4991,-2.4941,-2.4946,-2.5148,-2.5151,-2.5154,-2.5168,0,0,0,0,0,0,-2.4539,-2.456,-2.4588,-2.4645,-2.4666,-2.4769,-2.4747,-2.4755,-2.4788,-2.4787,-2.4845,-2.4853,-2.4874,-2.495,-2.4965,-2.4998,-2.4951,-2.5145,-2.5149,-2.5153,-2.5165,-2.5171,-2.5177,0,0,0,0,0,-2.4532,-2.4588,-2.459,-2.4607,-2.4702,-2.4771,-2.4783,-2.4806,-2.479,-2.4819,-2.485,-2.4851,-2.4985,-2.4957,-2.4975,-2.501,-2.5143,-2.5148,-2.5153,-2.5162,-2.517,-2.5177,0,0,0,0,0,0,-2.4534,-2.4596,-2.4598,-2.4674,-2.4717,-2.4772,-2.4809,-2.4813,-2.4862,-2.4859,-2.4886,-2.4899,-2.4969,-2.4997,-2.4965,-2.5085,-2.5063,-2.5071,-2.5064,-2.5072,-2.5077,-2.5069,-2.4956,0,0,0,0,0,-2.4543,-2.4593,-2.4645,-2.4707,-2.4728,-2.4765,-2.4795,-2.4809,-2.4855,-2.4874,-2.491,-2.4954,-2.5007,-2.5041,-2.5092,-2.5169,-2.5182,-2.5202,-2.5208,-2.5212,-2.5219,-2.5263,-2.5273,-2.5171,-2.5171,-2.5171,0,0,-2.4563,-2.4603,-2.4633,-2.4708,-2.4743,-2.4795,-2.478,-2.4835,-2.4874,-2.4882,-2.4951,-2.498,-2.5031,-2.5106,-2.5141,-2.5131,-2.525,-2.5218,-2.5222,-2.5226,-2.5269,-2.5278,-2.5287,-2.5174,-2.5173,-2.5173,0,0,-2.4625,-2.466,-2.4715,-2.4751,-2.4804,-2.4828,-2.4842,-2.4896,-2.4915,-2.4985,-2.4993,-2.5039,-2.5129,-2.5166,-2.5196,-2.5273,-2.5276,-2.5289,-2.5319,-2.5362,-2.537,-2.5377,-2.5405,-2.5414,-2.5295,-2.5296,-2.5296,0,-2.4642,-2.472,-2.4744,-2.4799,-2.4832,-2.4842,-2.4898,-2.4932,-2.4999,-2.5022,-2.501,-2.5123,-2.5159,-2.5242,-2.5261,-2.5285,-2.5302,-2.5282,-2.5367,-2.5374,-2.5381,-2.5408,-2.5419,-2.5297,-2.5297,-2.5296,-2.5296,0,-2.474,-2.4794,-2.4832,-2.4897,-2.4935,-2.499,-2.5022,-2.5058,-2.5068,-2.5094,-2.5166,-2.5209,-2.5269,-2.529,-2.5301,-2.5375,-2.5368,-2.5361,-2.5339,-2.5392,-2.5418,-2.5428,-2.5299,-2.5298,-2.5298,-2.5297,0,0,-2.4806,-2.4883,-2.4897,-2.4926,-2.4986,-2.5029,-2.5085,-2.5144,-2.5174,-2.522,-2.5268,-2.5344,-2.5339,-2.5373,-2.5389,-2.5426,-2.5484,-2.5415,-2.5416,-2.5426,-2.557,-2.5575,-2.5586,-2.5487,-2.5489,-2.549,-2.5566,0,-2.4875,-2.4975,-2.4998,-2.5085,-2.5135,-2.5145,-2.5195,-2.5237,-2.5262,-2.5309,-2.5338,-2.5391,-2.538,-2.5401,-2.5438,-2.5469,-2.5514,-2.5464,-2.5533,-2.5535,-2.5519,-2.56,-2.5605,-2.5674,-2.5576,-2.5578,-2.5579,0,-2.4969,-2.5017,-2.5109,-2.5162,-2.5184,-2.5228,-2.5284,-2.5329,-2.5377,-2.5393,-2.5432,-2.5444,-2.5504,-2.5479,-2.5563,-2.5528,-2.5558,-2.5578,-2.5581,-2.5588,-2.556,-2.561,-2.5697,-2.5707,-2.5595,-2.5594,-2.5593,0,-2.5008,-2.5096,-2.5163,-2.5188,-2.5252,-2.5282,-2.5311,-2.5357,-2.5391,-2.544,-2.5463,-2.5518,-2.5548,-2.5591,-2.5618,-2.5598,-2.5699,-2.5677,-2.5715,-2.5714,-2.5736,-2.5734,-2.5829,-2.5754,-2.5754,-2.5754,-2.5754,0,-2.5083,-2.5139,-2.5181,-2.5222,-2.5285,-2.5311,-2.5373,-2.5401,-2.5443,-2.549,-2.5502,-2.5546,-2.5578,-2.5627,-2.5648,-2.5714,-2.5728,-2.5743,-2.5748,-2.5742,-2.574,-2.5762,-2.5758,-2.5757,-2.5756,-2.5756,-2.5755,0,-2.5138,-2.5168,-2.5241,-2.5296,-2.5311,-2.5355,-2.5402,-2.5443,-2.5469,-2.5528,-2.5544,-2.5584,-2.5642,-2.5673,-2.5746,-2.576,-2.5834,-2.5837,-2.5818,-2.582,-2.5857,-2.5853,-2.5969,-2.5986,-2.5899,-2.59,-2.5901,0,-2.5184,-2.5227,-2.5286,-2.5318,-2.5347,-2.5399,-2.5434,-2.5461,-2.5497,-2.5555,-2.5589,-2.5647,-2.5696,-2.5788,-2.5825,-2.588,-2.5884,-2.5921,-2.5893,-2.5886,-2.5886,-2.5883,-2.5888,-2.5926,-2.5927,-2.5928,-2.5928,0,-2.5262,-2.5275,-2.5325,-2.538,-2.5421,-2.5465,-2.551,-2.5535,-2.557,-2.561,-2.5669,-2.5706,-2.5781,-2.5839,-2.5898,-2.5927,-2.5934,-2.5937,-2.5949,-2.5943,-2.5931,-2.5939,-2.5832,-2.5934,-2.5934,-2.5933,-2.5933,-2.5933,-2.5315,-2.5354,-2.5401,-2.5456,-2.5492,-2.5533,-2.5574,-2.5605,-2.5655,-2.5717,-2.573,-2.5793,-2.5842,-2.5921,-2.5953,-2.6003,-2.5995,-2.6012,-2.6017,-2.6021,-2.6022,-2.5923,-2.6013,-2.6013,-2.6013,-2.6013,-2.6013,0,-2.5394,-2.5425,-2.5475,-2.5537,-2.558,-2.5582,-2.5631,-2.5668,-2.5723,-2.5767,-2.5814,-2.5883,-2.594,-2.5981,-2.6039,-2.6071,-2.6076,-2.6085,-2.6084,-2.6091,-2.6025,-2.601,-2.6081,-2.6081,-2.6081,-2.6081,-2.6081,-2.6081,-2.5441,-2.5507,-2.5526,-2.561,-2.5641,-2.5703,-2.5731,-2.5769,-2.5805,-2.588,-2.5928,-2.5954,-2.5997,-2.6059,-2.6111,-2.6122,-2.6143,-2.6153,-2.6164,-2.6102,-2.6095,-2.6088,-2.6073,-2.6157,-2.6157,-2.6225,-2.6225,-2.6226]}]]